Flag for Germany Weather past 2 weeks in Lage, North Rhine-Westphalia, Germany

Now
39 °F

Broken clouds.


Feels Like: 30 °F
Forecast: 34 / 41 °F
Wind: 18 mph from West

Location: Bueckeburg

Current Time: Mar 2, 2015 at 9:05:18 AM

Latest Report: Mar 2, 2015 at 8:20 AM


Visibility: N/A

Pressure: 29.50 "Hg

Humidity: 75%

Dew point: 32 °F

Location of LageLocation

Historic Weather in Lage — Graph

°F

Lage temperature yesterday

Maximum temperature yesterday: 50 °F (at 1:20 PM)
Minimum temperature yesterday: 39 °F (at 12:20 AM)
Average temperature yesterday: 44 °F

Past Weeks' High & Low Weather Summary

 TemperatureHumidityPressure
High50 °F (Mar 1, 1:20 PM)100% (Feb 16, 1:20 AM)30.74 "Hg (Feb 16, 1:20 AM)
Low27 °F (Feb 16, 7:20 AM)46% (Feb 28, 3:20 PM)29.30 "Hg (Feb 21, 6:20 AM)
Average39 °F80%29.93 "Hg
* Reported Feb 15 7:20 AM — Mar 2 7:20 AM, Lage, Weather by CustomWeather, © 2015

Note: Actual official high and low records may vary slightly from our data, if they occured in-between our weather recording intervals... More about our weather records

Advertising

Lage weather history for previous 24 hours

 ConditionsComfort  
Time TempWeatherWind HumidityBarometerVisibility
7:20 AM
Mon, Mar 2
39 °FScattered clouds.20 mph70%29.47 "HgN/A
6:20 AM41 °FPassing clouds.17 mph70%29.45 "HgN/A
5:20 AM41 °FPassing clouds.21 mph76%29.45 "HgN/A
4:20 AM43 °FPassing clouds.17 mph76%29.39 "HgN/A
3:20 AM43 °FPassing clouds.16 mph81%29.39 "HgN/A
2:46 AM41 °FSprinkles. Partly cloudy.21 mph87%29.36 "HgN/A
2:20 AM45 °FLight rain. Passing clouds.16 mph81%29.36 "Hg5 mi
1:20 AM43 °FLight rain. Passing clouds.5 mph81%29.45 "Hg6 mi
12:20 AM43 °FPassing clouds.12 mph81%29.45 "HgN/A
11:20 PM
Sun, Mar 1
43 °FPassing clouds.10 mph81%29.50 "HgN/A
10:20 PM45 °FPassing clouds.9 mph71%29.53 "HgN/A
9:20 PM45 °FPassing clouds.9 mph71%29.53 "HgN/A
8:20 PM45 °FPassing clouds.12 mph71%29.56 "HgN/A
7:20 PM45 °FQuite cool.10 mph71%29.56 "HgN/A
6:20 PM45 °FQuite cool.12 mph71%29.56 "HgN/A
5:20 PM48 °FCool.17 mph62%29.53 "Hg6 mi
4:20 PM48 °FCool.17 mph66%29.53 "Hg6 mi
3:20 PM50 °FCool.20 mph62%29.53 "Hg6 mi
2:20 PM48 °FCool.20 mph71%29.53 "Hg5 mi
1:20 PM50 °FCool.22 mph71%29.50 "Hg5 mi
12:20 PM48 °FCool.17 mph76%29.53 "Hg4 mi
11:20 AM45 °FQuite cool.16 mph87%29.53 "Hg3 mi
10:20 AM45 °FQuite cool.14 mph87%29.53 "Hg2 mi
9:20 AM43 °FQuite cool.17 mph87%29.50 "Hg6 mi
Weather by CustomWeather, © 2015

See weather overviewHow to use our weather pages